Weather History for Fort Myers, FL

Change the Weather History Date:

Friday, July 26, 2013

  Actual Average Record
Temperature  
Mean Temperature 82 °F 83 °F  
Max Temperature 91 °F 92 °F 98 °F (1990)
Min Temperature 73 °F 75 °F 68 °F (1904)
Degree Days  
Heating Degree Days 0 0  
Month to date heating degree days 0 0  
Since 1 June heating degree days 0 0  
Since 1 July heating degree days 0 0  
Cooling Degree Days 17 18  
Month to date cooling degree days 428 468  
Year to date cooling degree days 2071 2059  
Since 1 June cooling degree days 933 993  
Growing Degree Days 32 (Base 50)    
Moisture  
Dew Point 73 °F    
Average Humidity 76    
Maximum Humidity 94    
Minimum Humidity 59    
Precipitation  
Precipitation 0.29 in 0.28 in 1.90 in (1903)
Month to date precipitation 9.04 7.58  
Year to date precipitation 29.53 29.47  
Sea Level Pressure  
Sea Level Pressure 30.01 in    
Wind  
Wind Speed 8 mph (West)    
Max Wind Speed 24 mph    
Max Gust Speed 32 mph    
Visibility 9 miles    
Events Rain , Thunderstorm    
T = Trace of Precipitation, MM = Missing Value Source: NWS Daily Summary

Daily Weather History Graph

Daily Weather History Graph

Search for Another Location

Airport:

Trip Planner

Search our weather history database for the weather conditions in past years. The results will help you decide how hot, cold, wet, or windy it might be!

Date:

Astronomy

Jul. 26, 2013 Rise Set
Actual Time 6:49 AM EDT 8:18 PM EDT
Civil Twilight 6:24 AM EDT 8:43 PM EDT
Nautical Twilight 5:54 AM EDT 9:13 PM EDT
Astronomical Twilight 5:22 AM EDT 9:44 PM EDT
Moon 11:05 PM EDT (7/26) 10:52 AM EDT (7/26)
Length of Visible Light 14h 19m
Length of Day
13h 28m
Waning Gibbous, 80% of the Moon is Illuminated
Jul 26
Waning Gibbous
Jul 29
Last Quarter
Aug 6
New
Aug 14
First Quarter
Aug 20
Full

Hourly Weather History & Observations

Time (EDT) Temp. Heat Index Dew Point Humidity Pressure Visibility Wind Dir Wind Speed Gust Speed Precip Events Conditions
12:53 AM 82.0 °F 87.4 °F 73.0 °F 74% 30.02 in 10.0 mi WSW 8.1 mph - N/A   Clear
1:53 AM 82.0 °F 87.9 °F 73.9 °F 76% 30.01 in 10.0 mi West 10.4 mph - N/A   Clear
2:53 AM 82.0 °F 87.9 °F 73.9 °F 76% 30.01 in 10.0 mi West 9.2 mph - N/A   Partly Cloudy
3:53 AM 82.0 °F 87.9 °F 73.9 °F 76% 29.98 in 10.0 mi WSW 12.7 mph - N/A   Clear
4:53 AM 82.0 °F 88.6 °F 75.0 °F 79% 29.98 in 10.0 mi West 13.8 mph - N/A   Partly Cloudy
5:53 AM 82.0 °F 88.6 °F 75.0 °F 79% 29.99 in 10.0 mi WSW 11.5 mph 18.4 mph N/A   Scattered Clouds
6:43 AM 78.8 °F - 73.4 °F 83% 30.02 in 10.0 mi NNW 5.8 mph - N/A Thunderstorm Overcast
6:53 AM 73.0 °F - 68.0 °F 84% 30.04 in 2.0 mi NNW 19.6 mph 27.6 mph 0.04 in Rain , Thunderstorm Heavy Thunderstorms and Rain
6:57 AM 73.4 °F - 68.0 °F 83% 30.03 in 1.8 mi NW 19.6 mph 32.2 mph 0.01 in Rain , Thunderstorm Light Thunderstorms and Rain
7:04 AM 73.4 °F - 69.8 °F 88% 30.04 in 1.0 mi WNW 8.1 mph 32.2 mph 0.03 in Rain , Thunderstorm Heavy Rain
7:09 AM 73.4 °F - 71.6 °F 94% 30.04 in 1.0 mi SW 6.9 mph - 0.15 in Rain Heavy Rain
7:20 AM 73.4 °F - 73.4 °F 100% 30.03 in 3.0 mi SW 4.6 mph - 0.23 in Rain Rain
7:53 AM 73.9 °F - 72.0 °F 93% 30.03 in 10.0 mi WSW 3.5 mph - 0.25 in   Partly Cloudy
8:53 AM 75.0 °F - 73.0 °F 94% 30.03 in 10.0 mi SSW 3.5 mph - N/A   Clear
9:53 AM 80.1 °F 85.8 °F 77.0 °F 90% 30.02 in 10.0 mi West 5.8 mph - N/A   Clear
10:53 AM 84.0 °F 92.6 °F 75.9 °F 76% 30.02 in 10.0 mi Variable 4.6 mph - N/A   Mostly Cloudy
11:53 AM 88.0 °F 95.6 °F 73.0 °F 61% 30.03 in 10.0 mi NW 5.8 mph - N/A   Scattered Clouds
12:53 PM 89.1 °F 97.0 °F 73.0 °F 59% 30.02 in 10.0 mi Variable 6.9 mph - N/A   Scattered Clouds
1:53 PM 89.1 °F 99.1 °F 75.0 °F 63% 30.01 in 10.0 mi WNW 9.2 mph - N/A   Partly Cloudy
2:53 PM 90.0 °F 100.2 °F 75.0 °F 61% 29.99 in 10.0 mi West 11.5 mph - N/A   Clear
3:53 PM 90.0 °F 100.2 °F 75.0 °F 61% 29.98 in 10.0 mi WNW 11.5 mph - N/A   Scattered Clouds
4:53 PM 89.1 °F 97.0 °F 73.0 °F 59% 29.98 in 10.0 mi WNW 12.7 mph - N/A   Clear
5:53 PM 86.0 °F 93.0 °F 73.0 °F 65% 29.98 in 10.0 mi WNW 12.7 mph - N/A   Scattered Clouds
6:53 PM 84.9 °F 91.4 °F 73.0 °F 67% 29.97 in 10.0 mi North 6.9 mph - N/A   Clear
7:53 PM 84.9 °F 90.7 °F 72.0 °F 65% 29.99 in 10.0 mi WNW 4.6 mph - N/A   Clear
8:53 PM 84.0 °F 91.2 °F 73.9 °F 72% 30.00 in 10.0 mi West 6.9 mph - N/A   Clear
9:53 PM 84.0 °F 92.6 °F 75.9 °F 76% 30.00 in 10.0 mi WNW 6.9 mph - N/A   Partly Cloudy
10:53 PM 82.9 °F 90.2 °F 75.0 °F 77% 30.01 in 10.0 mi NW 6.9 mph - N/A   Clear
11:53 PM 82.9 °F 90.2 °F 75.0 °F 77% 30.01 in 10.0 mi Calm Calm - N/A   Partly Cloudy